weather.gov     
National Weather Service

Miscellaneous Local Product
NWS Homepage
This page is being discontinued on March 12, 2014.
The same data is available at this site. Please update your bookmarks.
Thank you, and we apologize for the inconvenience.
Please send an email to SR-SRH.Webmaster@noaa.gov with any concerns.


Current Version
Previous Version:    01  02  03  04  05  06  07  08  09  10  11  12  13  14  15  16  17  18  19  20  21  22  23  24  25  26  27  28  29  30  
   31  32  33  34  35  36  37  38  39  40  41  42  43  44  45  46  47  48  49  50  51  52  53  54  55  56  57  58  59  60  
[Printable]
576
AXUS43 KLBF 221310
MISLBF


WESTERN AND NORTH CENTRAL NEBRASKA HOURLY WEATHER ROUNDUP
NATIONAL WEATHER SERVICE NORTH PLATTE NE
800 AM CDT WED OCT 22 2014

***STATIONS NOT REPORTING VARIABLES SUCH AS SKY/WEATHER OR
PRESSURE ARE PROVIDED BY THE NEBRASKA DEPARTMENT OF
ROADS...RAWS...AND APRS NETWORKS...AND ARE NOT UNDER
NATIONAL WEATHER SERVICE QUALITY CONTROL***

...OBSERVATIONS IN AND NEAR THE EASTERN PANHANDLE OF NEBRASKA...

CITY           SKY/WX    TMP DP  RH WIND       PRES   REMARKS
PINE RIDGE     CLOUDY    52  50  93 S6        29.94R
CHADRON        CLOUDY    52  37  56 W12       29.97R
ALLIANCE       CLOUDY    47  46  97 SW8       29.97R
SIDNEY         CLOUDY    50  46  86 NW5       30.01R
WHITECLAY        N/A     50  46  88 SE3         N/A
RUSHVILLE        N/A     51  47  84 W12         N/A
CRESCENT LAKE    N/A     52  49  90 SW5         N/A
LISCO            N/A     50  46  85 CALM        N/A
BIG SPRINGS      N/A     51  46  83 CALM        N/A
LEWELLEN         N/A     57  54  88 NW3         N/A
$$

...OBSERVATIONS IN NORTH CENTRAL NEBRASKA...

CITY           SKY/WX    TMP DP  RH WIND       PRES   REMARKS
VALENTINE      CLOUDY    60  49  66 W9        29.90R
THEDFORD       LGT RAIN  57  52  84 SW9       29.96R
AINSWORTH      CLOUDY    56  52  84 S5        29.90S
O`NEILL        CLOUDY    57  55  90 S13       29.93S
ORD            CLOUDY    55  53  93 SE7       29.95S FOG
BROKEN BOW     CLOUDY    56  52  86 SE8       29.94S
BROWNLEE         N/A     60  51  73 SW5         N/A
SPRINGVIEW       N/A     59  53  80 CALM        N/A
BREWSTER         N/A     61  55  82 S8          N/A
ROSE             N/A     59  58  94 E8          N/A
NEWPORT          N/A     60  55  84 S12         N/A
SARGENT          N/A     54  52  94 CALM        N/A
COMSTOCK         N/A     59  57  94 S10         N/A
CHAMBERS         N/A     55  53  93 E3G15       N/A
$$

...OBSERVATIONS IN SOUTHWEST NEBRASKA AND FAR NORTHEAST COLORADO...

CITY           SKY/WX    TMP DP  RH WIND       PRES   REMARKS
WRAY           CLOUDY    56  47  71 NW5       29.99R
HOLYOKE        FAIR      55  46  71 N5        29.99R
IMPERIAL       CLOUDY    54  46  74 N7        29.96R
OGALLALA       HVY RAIN  55  49  82 CALM      29.98R
NORTH PLATTE   CLOUDY    56  50  80 W5        29.96R
MCCOOK         MOCLDY    57  49  74 SW6       29.96R
LEXINGTON      MOCLDY    57  52  82 S12       29.95S
PAXTON           N/A     54  49  82 CALM        N/A
SUTHERLAND       N/A     51  47  87 W5          N/A
BRADY            N/A     56  49  78 CALM        N/A
GOTHENBURG       N/A     59  48  67 S5          N/A
CALLAWAY         N/A     53  50  90 S8          N/A
$$

...SOME WEATHER OBSERVATIONS FROM AROUND THE REGION...

CITY           SKY/WX    TMP DP  RH WIND       PRES   REMARKS
DENVER         MOCLDY    45  40  82 S10       30.05R
LARAMIE        CLOUDY    39  34  82 NW6       30.13R WCI  35
CHEYENNE       CLOUDY    48  36  63 N3        30.08R
SCOTTSBLUFF    MOCLDY    48  45  89 NW5       30.00R
RAPID CITY     CLOUDY    52  34  50 N20G30    29.92R
PIERRE         CLOUDY    61  46  57 NW23G31   29.82R
WINNER         FAIR      63  52  67 SW5       29.87R
SIOUX FALLS    PTCLDY    53  44  71 S17G25    29.99F
OMAHA          PTCLDY    54  44  69 SE16      30.11S
GRAND ISLAND   MOCLDY    57  53  86 S14G23    30.00S
KANSAS CITY    CLOUDY    53  46  77 SE12      30.18R
WICHITA        PTCLDY    58  55  90 SE7       30.11R
HAYS           PTCLDY    55  46  71 SE5       30.02S
LIBERAL        MOCLDY    59  50  72 S13       30.05R
GOODLAND       CLOUDY    50  47  89 S6        29.98S
$$




U.S. Dept. of Commerce
NOAA National Weather Service
1325 East West Highway
Silver Spring, MD 20910
E-mail: w-nws.webmaster@noaa.gov
Page last modified: May 16, 2007
NATIONAL WEATHER SERVICE: for Safety, for Work, for Fun - FOR LIFE